JST760 YSSY-YPAD

Flight info

Callsign JST760
Flight time 1h 45m
Altitude 34000
Route KADOM H44 MAXEM Q60 KAKLU
Aircraft A321/M-SDE3FGHIRWY/LB1

Departure

Time 2026-05-06 20:03
Airport Sydney Kingsford Smith International Airport (YSSY)

Arrival

Time 2026-05-06 21:48
Airport Adelaide International Airport (YPAD)
Time Latitude Longitude Altitude Speed Heading
2026-05-06 19:19 -33.93462 151.17700 30 ft 0 kts 99°
2026-05-06 19:53 -33.93460 151.17682 30 ft 3 kts 100°
2026-05-06 19:53 -33.93455 151.17656 30 ft 3 kts 103°
2026-05-06 19:53 -33.93450 151.17629 30 ft 3 kts 111°
2026-05-06 19:54 -33.93440 151.17607 30 ft 3 kts 140°
2026-05-06 19:54 -33.93428 151.17599 30 ft 0 kts 172°
2026-05-06 19:55 -33.93429 151.17599 30 ft 0 kts 172°
2026-05-06 19:58 -33.93433 151.17599 30 ft 3 kts 175°
2026-05-06 19:58 -33.93486 151.17594 30 ft 10 kts 179°
2026-05-06 19:58 -33.93559 151.17606 30 ft 11 kts 171°
2026-05-06 19:58 -33.93637 151.17632 30 ft 12 kts 155°
2026-05-06 19:59 -33.93708 151.17690 30 ft 13 kts 128°
2026-05-06 19:59 -33.93756 151.17782 30 ft 13 kts 120°
2026-05-06 19:59 -33.93800 151.17883 30 ft 14 kts 105°
2026-05-06 19:59 -33.93787 151.18000 30 ft 15 kts 75°
2026-05-06 20:00 -33.93759 151.18120 30 ft 15 kts 74°
2026-05-06 20:00 -33.93731 151.18245 30 ft 16 kts 74°
2026-05-06 20:00 -33.93699 151.18374 30 ft 16 kts 73°
2026-05-06 20:00 -33.93677 151.18465 30 ft 17 kts 73°
2026-05-06 20:01 -33.93644 151.18604 30 ft 18 kts 74°
2026-05-06 20:01 -33.93623 151.18691 30 ft 10 kts 74°
2026-05-06 20:01 -33.93615 151.18772 30 ft 10 kts 109°
2026-05-06 20:01 -33.93677 151.18816 29 ft 12 kts 163°
2026-05-06 20:02 -33.93769 151.18826 28 ft 15 kts 203°
2026-05-06 20:02 -33.93821 151.18702 26 ft 27 kts 253°
2026-05-06 20:02 -33.93939 151.18206 30 ft 95 kts 254°
2026-05-06 20:02 -33.94177 151.17209 34 ft 150 kts 253°
2026-05-06 20:03 -33.94419 151.15948 563 ft 153 kts 257°
2026-05-06 20:03 -33.94654 151.14688 1191 ft 156 kts 257°
2026-05-06 20:03 -33.94902 151.13373 1736 ft 168 kts 258°
2026-05-06 20:03 -33.95199 151.11937 2060 ft 184 kts 255°
2026-05-06 20:04 -33.95575 151.10357 2212 ft 209 kts 254°
2026-05-06 20:04 -33.95993 151.08562 2605 ft 225 kts 259°
2026-05-06 20:04 -33.95948 151.06662 3339 ft 234 kts 282°
2026-05-06 20:04 -33.95378 151.04800 4131 ft 239 kts 287°
2026-05-06 20:05 -33.94776 151.02905 4836 ft 246 kts 288°
2026-05-06 20:05 -33.94155 151.00990 5535 ft 247 kts 288°
2026-05-06 20:05 -33.93526 150.99048 6211 ft 253 kts 289°
2026-05-06 20:05 -33.92883 150.97067 6866 ft 257 kts 289°
2026-05-06 20:06 -33.92237 150.95055 7560 ft 258 kts 290°
2026-05-06 20:06 -33.91588 150.93028 8291 ft 260 kts 290°
2026-05-06 20:06 -33.90944 150.90999 8982 ft 261 kts 291°
2026-05-06 20:06 -33.90282 150.88948 9681 ft 265 kts 291°
2026-05-06 20:07 -33.89607 150.86870 10319 ft 272 kts 291°
2026-05-06 20:07 -33.88891 150.84663 10474 ft 292 kts 291°
2026-05-06 20:07 -33.88133 150.82308 10586 ft 313 kts 291°
2026-05-06 20:07 -33.87320 150.79781 10747 ft 331 kts 291°
2026-05-06 20:08 -33.86479 150.77171 11231 ft 337 kts 291°
2026-05-06 20:08 -33.85620 150.74526 11855 ft 340 kts 291°
2026-05-06 20:08 -33.84757 150.71872 12492 ft 342 kts 291°
2026-05-06 20:08 -33.83891 150.69199 13092 ft 344 kts 291°
2026-05-06 20:09 -33.83016 150.66505 13704 ft 347 kts 290°
2026-05-06 20:09 -33.82131 150.63785 14262 ft 351 kts 291°
2026-05-06 20:09 -33.81238 150.61051 14849 ft 353 kts 291°
2026-05-06 20:09 -33.80342 150.58296 15457 ft 354 kts 291°
2026-05-06 20:10 -33.79441 150.55527 16060 ft 356 kts 291°
2026-05-06 20:10 -33.78539 150.52752 16643 ft 358 kts 291°
2026-05-06 20:10 -33.77632 150.49955 17240 ft 360 kts 291°
2026-05-06 20:10 -33.76714 150.47146 17828 ft 363 kts 291°
2026-05-06 20:11 -33.75784 150.44311 18362 ft 365 kts 291°
2026-05-06 20:11 -33.74848 150.41460 18815 ft 368 kts 291°
2026-05-06 20:11 -33.73907 150.38590 19324 ft 369 kts 291°
2026-05-06 20:11 -33.72964 150.35709 19802 ft 371 kts 291°
2026-05-06 20:12 -33.72033 150.32802 20272 ft 373 kts 288°
2026-05-06 20:12 -33.71451 150.29759 20735 ft 376 kts 278°
2026-05-06 20:12 -33.71375 150.26607 21199 ft 381 kts 268°
2026-05-06 20:12 -33.71648 150.23434 21649 ft 384 kts 267°
2026-05-06 20:13 -33.71933 150.20240 22105 ft 385 kts 267°
2026-05-06 20:13 -33.72216 150.17031 22570 ft 387 kts 267°
2026-05-06 20:13 -33.72498 150.13804 23003 ft 389 kts 267°
2026-05-06 20:13 -33.72781 150.10566 23437 ft 391 kts 267°
2026-05-06 20:14 -33.73067 150.07307 23798 ft 393 kts 267°
2026-05-06 20:14 -33.73350 150.04036 24152 ft 394 kts 268°
2026-05-06 20:14 -33.73629 150.00750 24528 ft 396 kts 268°
2026-05-06 20:14 -33.73907 149.97458 24901 ft 397 kts 268°
2026-05-06 20:15 -33.74189 149.94159 25281 ft 398 kts 268°
2026-05-06 20:15 -33.74474 149.90802 25640 ft 399 kts 268°
2026-05-06 20:15 -33.74758 149.87485 25995 ft 399 kts 268°
2026-05-06 20:15 -33.75039 149.84172 26408 ft 399 kts 268°
2026-05-06 20:16 -33.75319 149.80853 26807 ft 399 kts 268°
2026-05-06 20:16 -33.75598 149.77531 27205 ft 400 kts 269°
2026-05-06 20:16 -33.75878 149.74198 27555 ft 402 kts 269°
2026-05-06 20:16 -33.76159 149.70850 27913 ft 403 kts 269°
2026-05-06 20:17 -33.76437 149.67499 28243 ft 404 kts 269°
2026-05-06 20:17 -33.76712 149.64148 28684 ft 402 kts 269°
2026-05-06 20:17 -33.76986 149.60814 29152 ft 400 kts 269°
2026-05-06 20:17 -33.77259 149.57494 29655 ft 397 kts 269°
2026-05-06 20:18 -33.77530 149.54199 30143 ft 395 kts 269°
2026-05-06 20:18 -33.77799 149.50926 30518 ft 393 kts 269°
2026-05-06 20:18 -33.78064 149.47667 30911 ft 390 kts 270°
2026-05-06 20:18 -33.78328 149.44430 31301 ft 388 kts 270°
2026-05-06 20:19 -33.78592 149.41213 31704 ft 386 kts 270°
2026-05-06 20:19 -33.78852 149.38012 32081 ft 383 kts 270°
2026-05-06 20:19 -33.79106 149.34832 32472 ft 381 kts 270°
2026-05-06 20:19 -33.79355 149.31674 32842 ft 379 kts 270°
2026-05-06 20:20 -33.79604 149.28528 33208 ft 377 kts 270°
2026-05-06 20:20 -33.79854 149.25405 33580 ft 375 kts 270°
2026-05-06 20:20 -33.80104 149.22286 33945 ft 372 kts 270°
2026-05-06 20:20 -33.80349 149.19188 34093 ft 372 kts 270°
2026-05-06 20:21 -33.80837 149.13022 34138 ft 371 kts 270°
2026-05-06 20:21 -33.81320 149.06841 34110 ft 372 kts 270°
2026-05-06 20:22 -33.81799 149.00663 34116 ft 370 kts 270°
2026-05-06 20:22 -33.82273 148.94501 34116 ft 370 kts 270°
2026-05-06 20:23 -33.82744 148.88347 34134 ft 370 kts 270°
2026-05-06 20:23 -33.83211 148.82179 34133 ft 370 kts 270°
2026-05-06 20:24 -33.83680 148.76008 34131 ft 370 kts 270°
2026-05-06 20:24 -33.84150 148.69846 34162 ft 370 kts 270°
2026-05-06 20:25 -33.84757 148.63699 34163 ft 373 kts 265°
2026-05-06 20:25 -33.85787 148.57577 34157 ft 373 kts 265°
2026-05-06 20:26 -33.86816 148.51422 34164 ft 373 kts 265°
2026-05-06 20:26 -33.87832 148.45298 34169 ft 373 kts 265°
2026-05-06 20:27 -33.88846 148.39167 34164 ft 374 kts 265°
2026-05-06 20:27 -33.89855 148.33029 34161 ft 374 kts 265°
2026-05-06 20:28 -33.90866 148.26888 34163 ft 374 kts 265°
2026-05-06 20:28 -33.91873 148.20747 34167 ft 373 kts 265°
2026-05-06 20:29 -33.92872 148.14624 34173 ft 372 kts 264°
2026-05-06 20:29 -33.93865 148.08509 34173 ft 372 kts 265°
2026-05-06 20:30 -33.95356 147.99356 34177 ft 371 kts 265°
2026-05-06 20:31 -33.96350 147.93251 34179 ft 372 kts 265°
2026-05-06 20:31 -33.97333 147.87150 34182 ft 371 kts 264°
2026-05-06 20:32 -33.98309 147.81056 34189 ft 370 kts 265°
2026-05-06 20:32 -33.99115 147.75992 34188 ft 369 kts 265°
2026-05-06 20:33 -34.00083 147.69887 34192 ft 369 kts 265°
2026-05-06 20:33 -34.01049 147.63817 34184 ft 368 kts 264°
2026-05-06 20:34 -34.02015 147.57754 34192 ft 368 kts 264°
2026-05-06 20:34 -34.02973 147.51697 34200 ft 366 kts 265°
2026-05-06 20:35 -34.03917 147.45674 34204 ft 366 kts 264°
2026-05-06 20:35 -34.04864 147.39643 34201 ft 366 kts 264°
2026-05-06 20:36 -34.05810 147.33611 34190 ft 366 kts 264°
2026-05-06 20:36 -34.06750 147.27577 34194 ft 366 kts 264°
2026-05-06 20:37 -34.07686 147.21539 34205 ft 366 kts 264°
2026-05-06 20:37 -34.08622 147.15501 34210 ft 366 kts 264°
2026-05-06 20:38 -34.09552 147.09457 34189 ft 366 kts 264°
2026-05-06 20:38 -34.10476 147.03412 34249 ft 366 kts 264°
2026-05-06 20:39 -34.11401 146.97365 34240 ft 366 kts 264°
2026-05-06 20:39 -34.12328 146.91326 34243 ft 366 kts 264°
2026-05-06 20:40 -34.13249 146.85276 34238 ft 366 kts 264°
2026-05-06 20:40 -34.14171 146.79231 34231 ft 366 kts 264°
2026-05-06 20:41 -34.15081 146.73180 34238 ft 366 kts 264°
2026-05-06 20:41 -34.15988 146.67122 34241 ft 367 kts 264°
2026-05-06 20:42 -34.16896 146.61062 34249 ft 367 kts 264°
2026-05-06 20:42 -34.17809 146.55004 34255 ft 366 kts 264°
2026-05-06 20:43 -34.18717 146.48952 34252 ft 366 kts 264°
2026-05-06 20:43 -34.19614 146.42891 34248 ft 367 kts 264°
2026-05-06 20:44 -34.20508 146.36821 34243 ft 367 kts 264°
2026-05-06 20:44 -34.21406 146.30751 34229 ft 367 kts 264°
2026-05-06 20:45 -34.22306 146.24666 34232 ft 368 kts 264°
2026-05-06 20:45 -34.23194 146.18583 34245 ft 368 kts 264°
2026-05-06 20:46 -34.24075 146.12491 34244 ft 368 kts 264°
2026-05-06 20:46 -34.24956 146.06396 34292 ft 368 kts 263°
2026-05-06 20:47 -34.25767 146.00247 34262 ft 368 kts 264°
2026-05-06 20:47 -34.26512 145.94117 34266 ft 368 kts 264°
2026-05-06 20:48 -34.27251 145.87985 34275 ft 369 kts 264°
2026-05-06 20:48 -34.27998 145.81851 34274 ft 369 kts 264°
2026-05-06 20:49 -34.28755 145.75720 34247 ft 369 kts 264°
2026-05-06 20:49 -34.29501 145.69572 34255 ft 370 kts 264°
2026-05-06 20:50 -34.30245 145.63407 34274 ft 371 kts 264°
2026-05-06 20:50 -34.30993 145.57189 34295 ft 371 kts 263°
2026-05-06 20:51 -34.31735 145.51000 34262 ft 372 kts 263°
2026-05-06 20:51 -34.32483 145.44794 34270 ft 373 kts 263°
2026-05-06 20:52 -34.33226 145.38574 34275 ft 374 kts 263°
2026-05-06 20:52 -34.33965 145.32339 34283 ft 375 kts 263°
2026-05-06 20:53 -34.34705 145.26102 34245 ft 375 kts 263°
2026-05-06 20:53 -34.35444 145.19855 34255 ft 376 kts 263°
2026-05-06 20:54 -34.36172 145.13589 34267 ft 376 kts 263°
2026-05-06 20:54 -34.36905 145.07308 34316 ft 377 kts 262°
2026-05-06 20:55 -34.37635 145.01012 34314 ft 377 kts 262°
2026-05-06 20:55 -34.38358 144.94710 34272 ft 378 kts 261°
2026-05-06 20:56 -34.39079 144.88396 34278 ft 379 kts 261°
2026-05-06 20:56 -34.39800 144.82077 34288 ft 379 kts 261°
2026-05-06 20:57 -34.40528 144.75745 34297 ft 380 kts 261°
2026-05-06 20:57 -34.41245 144.69451 34272 ft 380 kts 261°
2026-05-06 20:58 -34.41968 144.63056 34326 ft 381 kts 261°
2026-05-06 20:58 -34.42679 144.56697 34316 ft 381 kts 261°
2026-05-06 20:59 -34.43388 144.50332 34314 ft 381 kts 261°
2026-05-06 20:59 -34.44096 144.43960 34277 ft 382 kts 259°
2026-05-06 21:00 -34.44815 144.37557 34281 ft 384 kts 260°
2026-05-06 21:00 -34.45517 144.31142 34293 ft 384 kts 260°
2026-05-06 21:01 -34.46211 144.24706 34293 ft 385 kts 260°
2026-05-06 21:01 -34.46916 144.18254 34290 ft 388 kts 259°
2026-05-06 21:02 -34.47626 144.11764 34328 ft 389 kts 259°
2026-05-06 21:02 -34.48328 144.05269 34329 ft 389 kts 259°
2026-05-06 21:03 -34.49022 143.98773 34329 ft 388 kts 259°
2026-05-06 21:03 -34.49718 143.92278 34334 ft 388 kts 259°
2026-05-06 21:04 -34.50294 143.86877 34330 ft 388 kts 259°
2026-05-06 21:04 -34.50979 143.80390 34329 ft 387 kts 259°
2026-05-06 21:05 -34.51663 143.73910 34290 ft 388 kts 258°
2026-05-06 21:05 -34.52350 143.67401 34316 ft 390 kts 258°
2026-05-06 21:06 -34.53028 143.60863 34318 ft 391 kts 258°
2026-05-06 21:06 -34.53704 143.54310 34321 ft 392 kts 258°
2026-05-06 21:07 -34.54387 143.47711 34296 ft 392 kts 258°
2026-05-06 21:07 -34.55067 143.41127 34304 ft 394 kts 258°
2026-05-06 21:08 -34.55731 143.34514 34312 ft 395 kts 258°
2026-05-06 21:08 -34.56393 143.27927 34318 ft 396 kts 258°
2026-05-06 21:09 -34.57070 143.21273 34322 ft 400 kts 258°
2026-05-06 21:09 -34.57748 143.14565 34329 ft 401 kts 258°
2026-05-06 21:10 -34.58418 143.07847 34326 ft 399 kts 258°
2026-05-06 21:10 -34.59088 143.01126 34366 ft 401 kts 257°
2026-05-06 21:11 -34.59767 142.94350 34345 ft 403 kts 259°
2026-05-06 21:11 -34.60394 142.87631 34326 ft 400 kts 258°
2026-05-06 21:12 -34.61045 142.80906 34319 ft 399 kts 258°
2026-05-06 21:12 -34.61706 142.74197 34334 ft 405 kts 258°
2026-05-06 21:13 -34.62374 142.67341 34356 ft 411 kts 257°
2026-05-06 21:13 -34.63046 142.60414 34374 ft 413 kts 257°
2026-05-06 21:14 -34.63678 142.53445 34407 ft 418 kts 258°
2026-05-06 21:14 -34.64129 142.46353 34400 ft 422 kts 261°
2026-05-06 21:15 -34.64465 142.39248 34385 ft 420 kts 261°
2026-05-06 21:15 -34.64818 142.32126 34401 ft 425 kts 260°
2026-05-06 21:16 -34.65226 142.25008 34373 ft 420 kts 259°
2026-05-06 21:16 -34.65633 142.17944 34383 ft 418 kts 259°
2026-05-06 21:17 -34.66012 142.10924 34362 ft 414 kts 260°
2026-05-06 21:17 -34.66379 142.03918 34341 ft 417 kts 259°
2026-05-06 21:18 -34.66756 141.96817 34375 ft 423 kts 259°
2026-05-06 21:18 -34.67135 141.89652 34390 ft 427 kts 259°
2026-05-06 21:19 -34.67515 141.82483 34395 ft 429 kts 260°
2026-05-06 21:19 -34.67889 141.75272 34392 ft 427 kts 259°
2026-05-06 21:20 -34.68259 141.68096 34386 ft 425 kts 259°
2026-05-06 21:20 -34.68615 141.60877 34388 ft 422 kts 260°
2026-05-06 21:21 -34.68980 141.53780 34368 ft 422 kts 259°
2026-05-06 21:21 -34.69336 141.46639 34346 ft 421 kts 260°
2026-05-06 21:22 -34.69678 141.39536 34361 ft 422 kts 259°
2026-05-06 21:22 -34.70019 141.32388 34340 ft 425 kts 259°
2026-05-06 21:23 -34.70389 141.25164 34409 ft 433 kts 260°
2026-05-06 21:23 -34.70731 141.17899 34430 ft 430 kts 260°
2026-05-06 21:24 -34.71038 141.10687 34369 ft 427 kts 260°
2026-05-06 21:24 -34.71363 141.03493 34376 ft 426 kts 260°
2026-05-06 21:25 -34.71700 140.96293 34383 ft 428 kts 260°
2026-05-06 21:25 -34.72025 140.89068 34382 ft 428 kts 260°
2026-05-06 21:26 -34.72331 140.81826 34372 ft 429 kts 260°
2026-05-06 21:26 -34.72641 140.74568 34374 ft 430 kts 260°
2026-05-06 21:27 -34.72959 140.67283 34184 ft 432 kts 260°
2026-05-06 21:27 -34.73117 140.63638 33883 ft 433 kts 260°
2026-05-06 21:27 -34.73273 140.59968 33610 ft 434 kts 260°
2026-05-06 21:27 -34.73425 140.56299 33341 ft 435 kts 261°
2026-05-06 21:28 -34.73578 140.52621 33075 ft 436 kts 261°
2026-05-06 21:28 -34.73730 140.48936 32508 ft 439 kts 261°
2026-05-06 21:28 -34.73886 140.45210 31651 ft 443 kts 261°
2026-05-06 21:28 -34.74045 140.41459 30750 ft 447 kts 261°
2026-05-06 21:29 -34.74206 140.37666 29736 ft 452 kts 261°
2026-05-06 21:29 -34.74363 140.33838 28780 ft 454 kts 261°
2026-05-06 21:29 -34.74513 140.30006 27891 ft 454 kts 261°
2026-05-06 21:29 -34.74653 140.26203 27347 ft 447 kts 262°
2026-05-06 21:30 -34.74790 140.22435 26685 ft 444 kts 262°
2026-05-06 21:30 -34.74928 140.18707 26033 ft 439 kts 262°
2026-05-06 21:30 -34.75065 140.15020 25413 ft 434 kts 262°
2026-05-06 21:30 -34.75204 140.11370 24788 ft 430 kts 262°
2026-05-06 21:31 -34.75343 140.07755 24161 ft 427 kts 262°
2026-05-06 21:31 -34.75478 140.04160 23479 ft 422 kts 262°
2026-05-06 21:31 -34.75608 140.00623 22868 ft 416 kts 262°
2026-05-06 21:31 -34.75733 139.97136 22258 ft 410 kts 262°
2026-05-06 21:32 -34.75854 139.93693 21676 ft 404 kts 262°
2026-05-06 21:32 -34.76095 139.86950 20534 ft 395 kts 262°
2026-05-06 21:32 -34.76214 139.83632 19993 ft 390 kts 262°
2026-05-06 21:33 -34.76331 139.80354 19468 ft 387 kts 262°
2026-05-06 21:33 -34.76448 139.77099 18962 ft 383 kts 262°
2026-05-06 21:33 -34.76563 139.73874 18413 ft 381 kts 262°
2026-05-06 21:33 -34.76673 139.70675 17920 ft 376 kts 263°
2026-05-06 21:34 -34.76780 139.67518 17424 ft 372 kts 262°
2026-05-06 21:34 -34.76886 139.64395 16918 ft 368 kts 262°
2026-05-06 21:34 -34.76990 139.61303 16421 ft 363 kts 262°
2026-05-06 21:34 -34.77090 139.58254 15908 ft 360 kts 262°
2026-05-06 21:35 -34.77191 139.55228 15398 ft 356 kts 262°
2026-05-06 21:35 -34.77289 139.52235 14856 ft 352 kts 262°
2026-05-06 21:35 -34.77387 139.49267 14346 ft 349 kts 262°
2026-05-06 21:35 -34.77483 139.46331 13778 ft 346 kts 262°
2026-05-06 21:36 -34.77577 139.43422 13244 ft 343 kts 262°
2026-05-06 21:36 -34.77670 139.40539 12717 ft 339 kts 262°
2026-05-06 21:36 -34.77751 139.37692 12191 ft 335 kts 262°
2026-05-06 21:36 -34.77821 139.34861 11665 ft 332 kts 262°
2026-05-06 21:37 -34.77884 139.32070 11273 ft 326 kts 262°
2026-05-06 21:37 -34.77936 139.29369 11149 ft 312 kts 262°
2026-05-06 21:37 -34.77986 139.26792 11028 ft 298 kts 262°
2026-05-06 21:37 -34.78037 139.24326 10911 ft 286 kts 261°
2026-05-06 21:38 -34.78088 139.21948 10747 ft 277 kts 261°
2026-05-06 21:38 -34.78143 139.19628 10488 ft 272 kts 261°
2026-05-06 21:38 -34.78200 139.17346 10311 ft 270 kts 260°
2026-05-06 21:38 -34.78258 139.15067 10171 ft 270 kts 260°
2026-05-06 21:39 -34.78316 139.12785 9945 ft 271 kts 261°
2026-05-06 21:39 -34.78353 139.11261 9624 ft 272 kts 261°
2026-05-06 21:39 -34.78401 139.08967 9238 ft 270 kts 261°
2026-05-06 21:39 -34.78446 139.06692 8878 ft 268 kts 261°
2026-05-06 21:40 -34.78497 139.04422 8421 ft 270 kts 261°
2026-05-06 21:40 -34.78547 139.02140 8071 ft 269 kts 261°
2026-05-06 21:40 -34.78595 138.99855 7683 ft 269 kts 262°
2026-05-06 21:40 -34.78637 138.97590 7362 ft 267 kts 262°
2026-05-06 21:41 -34.78680 138.95307 7000 ft 266 kts 262°
2026-05-06 21:41 -34.78722 138.93068 6755 ft 260 kts 262°
2026-05-06 21:41 -34.78762 138.90937 6617 ft 250 kts 262°
2026-05-06 21:41 -34.78801 138.88820 6379 ft 245 kts 262°
2026-05-06 21:42 -34.78842 138.86757 6034 ft 244 kts 262°
2026-05-06 21:42 -34.78886 138.84719 5694 ft 243 kts 262°
2026-05-06 21:42 -34.78931 138.82644 5387 ft 240 kts 263°
2026-05-06 21:42 -34.78971 138.80619 5079 ft 239 kts 263°
2026-05-06 21:43 -34.79010 138.78636 4798 ft 236 kts 262°
2026-05-06 21:43 -34.79164 138.76693 4501 ft 226 kts 249°
2026-05-06 21:43 -34.79816 138.75008 4373 ft 215 kts 229°
2026-05-06 21:43 -34.80760 138.73614 4132 ft 213 kts 225°
2026-05-06 21:44 -34.81712 138.72241 3896 ft 210 kts 225°
2026-05-06 21:44 -34.82629 138.70916 3597 ft 205 kts 225°
2026-05-06 21:44 -34.83535 138.69605 3312 ft 200 kts 225°
2026-05-06 21:44 -34.84425 138.68316 3038 ft 197 kts 225°
2026-05-06 21:45 -34.85309 138.67036 2772 ft 194 kts 225°
2026-05-06 21:45 -34.86166 138.65794 2504 ft 193 kts 225°
2026-05-06 21:45 -34.87009 138.64570 2264 ft 183 kts 226°
2026-05-06 21:45 -34.87807 138.63411 1996 ft 174 kts 226°
2026-05-06 21:46 -34.88565 138.62312 1757 ft 166 kts 226°
2026-05-06 21:46 -34.89287 138.61263 1518 ft 156 kts 226°
2026-05-06 21:46 -34.89964 138.60280 1346 ft 146 kts 226°
2026-05-06 21:46 -34.90606 138.59348 1123 ft 140 kts 227°
2026-05-06 21:47 -34.91229 138.58444 903 ft 139 kts 227°
2026-05-06 21:47 -34.91847 138.57540 711 ft 140 kts 228°
2026-05-06 21:47 -34.92477 138.56626 574 ft 141 kts 229°
2026-05-06 21:47 -34.93108 138.55704 373 ft 141 kts 227°
2026-05-06 21:48 -34.93738 138.54792 172 ft 140 kts 227°
2026-05-06 21:48 -34.94362 138.53898 27 ft 129 kts 228°
2026-05-06 21:48 -34.94835 138.53219 28 ft 80 kts 230°
2026-05-06 21:48 -34.95082 138.52855 26 ft 31 kts 231°
2026-05-06 21:49 -34.95197 138.52682 26 ft 26 kts 230°
2026-05-06 21:49 -34.95244 138.52587 26 ft 11 kts 268°
2026-05-06 21:49 -34.95195 138.52512 30 ft 12 kts 319°
2026-05-06 21:49 -34.95120 138.52456 32 ft 14 kts 341°
2026-05-06 21:50 -34.95024 138.52464 30 ft 15 kts 24°
2026-05-06 21:50 -34.94938 138.52541 28 ft 16 kts 39°
2026-05-06 21:50 -34.94845 138.52628 30 ft 18 kts 38°
2026-05-06 21:50 -34.94745 138.52722 30 ft 19 kts 37°
2026-05-06 21:51 -34.94636 138.52822 27 ft 20 kts 37°
2026-05-06 21:51 -34.94529 138.52923 29 ft 18 kts 38°
2026-05-06 21:51 -34.94449 138.53018 26 ft 16 kts 66°
2026-05-06 21:51 -34.94472 138.53145 28 ft 17 kts 121°
2026-05-06 21:52 -34.94520 138.53277 26 ft 18 kts 90°
2026-05-06 21:52 -34.94459 138.53410 31 ft 19 kts 50°
2026-05-06 21:52 -34.94371 138.53538 30 ft 20 kts 50°
2026-05-06 21:52 -34.94302 138.53638 29 ft 13 kts 49°
2026-05-06 21:53 -34.94231 138.53644 28 ft 12 kts 340°
2026-05-06 21:53 -34.94175 138.53660 30 ft 5 kts 41°
2026-05-06 21:53 -34.94143 138.53678 28 ft 6 kts 351°
2026-05-06 21:53 -34.94105 138.53649 30 ft 7 kts 321°
2026-05-06 21:54 -34.94081 138.53624 31 ft 1 kts 320°